Weather History for Sand Point, AK

Change the Weather History Date:

Wednesday, December 12, 2012

  Actual Average Record
Temperature  
Mean Temperature 42 °F -  
Max Temperature 44 °F 32 °F 45 °F (1990)
Min Temperature 41 °F 26 °F 10 °F (1980)
Degree Days  
Heating Degree Days 22    
Moisture  
Dew Point 37 °F    
Average Humidity 82    
Maximum Humidity 100    
Minimum Humidity 66    
Precipitation  
Precipitation 0.00 in - - ()
Sea Level Pressure  
Sea Level Pressure 29.72 in    
Wind  
Wind Speed 14 mph (WSW)    
Max Wind Speed 28 mph    
Max Gust Speed 38 mph    
Visibility 10 miles    
Events      
Averages and records for this station are not official NWS values.
T = Trace of Precipitation, MM = Missing Value Source: NWS Daily Summary

Daily Weather History Graph

Daily Weather History Graph

Search for Another Location

Airport:

Trip Planner

Search our weather history database for the weather conditions in past years. The results will help you decide how hot, cold, wet, or windy it might be!

Date:

Astronomy

Dec. 12, 2012 Rise Set
Actual Time 10:00 AM AKST 5:11 PM AKST
Civil Twilight 9:14 AM AKST 5:57 PM AKST
Nautical Twilight 8:26 AM AKST 6:45 PM AKST
Astronomical Twilight 7:42 AM AKST 7:29 PM AKST
Moon 9:14 AM AKST (12/12) 5:04 PM AKST (12/12)
Length of Visible Light 8h 42m
Length of Day
7h 10m
Waning Crescent, 0% of the Moon is Illuminated
Dec 12
Waning Crescent
Dec 12
New
Dec 19
First Quarter
Dec 28
Full
Jan 4
Last Quarter

Hourly Weather History & Observations

Time (AKST) Temp. Windchill Dew Point Humidity Pressure Visibility Wind Dir Wind Speed Gust Speed Precip Events Conditions
12:16 AM 44.6 °F 38.8 °F 42.8 °F 93% 29.62 in 10.0 mi SSW 11.5 mph 18.4 mph N/A   Overcast
12:36 AM 42.8 °F 36.2 °F 41.0 °F 93% 29.61 in 10.0 mi SSW 12.7 mph 20.7 mph N/A   Overcast
12:56 AM 42.8 °F 37.5 °F 41.0 °F 93% 29.62 in 10.0 mi SW 9.2 mph 16.1 mph N/A   Overcast
1:16 AM 42.8 °F 35.1 °F 41.0 °F 93% 29.60 in 10.0 mi SSW 16.1 mph - N/A   Overcast
1:36 AM 42.8 °F - 42.8 °F 100% 29.59 in 10.0 mi Calm Calm - N/A   Overcast
1:56 AM 42.8 °F 40.1 °F 42.8 °F 100% 29.61 in 10.0 mi ENE 4.6 mph - N/A   Overcast
2:16 AM 42.8 °F 40.1 °F 41.0 °F 93% 29.59 in 10.0 mi East 4.6 mph - N/A   Overcast
2:36 AM 42.8 °F 37.5 °F 42.8 °F 100% 29.59 in 10.0 mi SSW 9.2 mph 16.1 mph N/A   Overcast
2:56 AM 44.6 °F 40.7 °F 42.8 °F 93% 29.60 in 10.0 mi SW 6.9 mph - N/A   Overcast
3:16 AM 42.8 °F 36.6 °F 42.8 °F 100% 29.59 in 10.0 mi SW 11.5 mph 20.7 mph N/A   Mostly Cloudy
3:36 AM 42.8 °F 38.6 °F 42.8 °F 100% 29.58 in 10.0 mi WSW 6.9 mph 21.9 mph N/A   Mostly Cloudy
3:56 AM 42.8 °F 38.0 °F 42.8 °F 100% 29.59 in 10.0 mi WSW 8.1 mph - N/A   Mostly Cloudy
4:16 AM 42.8 °F 33.5 °F 41.0 °F 93% 29.60 in 10.0 mi SW 23.0 mph 27.6 mph N/A   Partly Cloudy
4:36 AM 41.0 °F 32.2 °F 41.0 °F 100% 29.59 in 10.0 mi SW 18.4 mph 33.4 mph N/A   Mostly Cloudy
4:56 AM 42.8 °F 35.1 °F 41.0 °F 93% 29.60 in 10.0 mi West 16.1 mph 20.7 mph N/A   Mostly Cloudy
5:16 AM 42.8 °F 34.5 °F 41.0 °F 93% 29.62 in 10.0 mi WSW 18.4 mph 23.0 mph N/A   Overcast
5:36 AM 42.8 °F 35.1 °F 41.0 °F 93% 29.61 in 10.0 mi West 16.1 mph 21.9 mph N/A   Overcast
5:56 AM 42.8 °F 36.6 °F 41.0 °F 93% 29.61 in 10.0 mi West 11.5 mph - N/A   Overcast
6:16 AM 42.8 °F 38.6 °F 39.2 °F 87% 29.63 in 10.0 mi West 6.9 mph - N/A   Overcast
6:36 AM 42.8 °F 37.5 °F 39.2 °F 87% 29.63 in 10.0 mi West 9.2 mph - N/A   Mostly Cloudy
6:56 AM 44.6 °F 37.4 °F 37.4 °F 76% 29.63 in 10.0 mi West 16.1 mph 26.5 mph N/A   Clear
7:16 AM 44.6 °F 36.1 °F 37.4 °F 76% 29.65 in 10.0 mi West 21.9 mph 29.9 mph N/A   Scattered Clouds
7:36 AM 44.6 °F 36.6 °F 37.4 °F 76% 29.66 in 10.0 mi West 19.6 mph 26.5 mph N/A   Scattered Clouds
7:56 AM 42.8 °F 36.2 °F 37.4 °F 81% 29.66 in 10.0 mi SW 12.7 mph 19.6 mph N/A   Mostly Cloudy
8:16 AM 42.8 °F 35.8 °F 39.2 °F 87% 29.67 in 10.0 mi SW 13.8 mph - N/A   Mostly Cloudy
8:36 AM 42.8 °F 34.3 °F 39.2 °F 87% 29.67 in 10.0 mi SW 19.6 mph 24.2 mph N/A   Mostly Cloudy
8:56 AM 41.0 °F 32.2 °F 39.2 °F 93% 29.70 in 2.0 mi West 18.4 mph 23.0 mph N/A   Overcast
9:16 AM 41.0 °F 34.3 °F 37.4 °F 87% 29.71 in 10.0 mi West 11.5 mph 20.7 mph N/A   Mostly Cloudy
9:36 AM 42.8 °F 33.8 °F 35.6 °F 76% 29.72 in 10.0 mi West 21.9 mph 28.8 mph N/A   Scattered Clouds
9:56 AM 42.8 °F 34.0 °F 33.8 °F 70% 29.71 in 10.0 mi West 20.7 mph 26.5 mph N/A   Mostly Cloudy
10:16 AM 42.8 °F 34.3 °F 33.8 °F 70% 29.73 in 10.0 mi West 19.6 mph 27.6 mph N/A   Mostly Cloudy
10:36 AM 42.8 °F 34.0 °F 33.8 °F 70% 29.75 in 10.0 mi West 20.7 mph 29.9 mph N/A   Mostly Cloudy
10:56 AM 42.8 °F 33.5 °F 33.8 °F 70% 29.75 in 10.0 mi West 23.0 mph 28.8 mph N/A   Scattered Clouds
11:16 AM 42.8 °F 33.8 °F 33.8 °F 70% 29.76 in 10.0 mi West 21.9 mph 31.1 mph N/A   Scattered Clouds
11:36 AM 42.8 °F 34.0 °F 33.8 °F 70% 29.78 in 10.0 mi West 20.7 mph 27.6 mph N/A   Scattered Clouds
11:56 AM 42.8 °F 35.1 °F 33.8 °F 70% 29.78 in 10.0 mi WSW 16.1 mph 24.2 mph N/A   Mostly Cloudy
12:16 PM 42.8 °F 35.4 °F 33.8 °F 70% 29.78 in 10.0 mi West 15.0 mph 24.2 mph N/A   Mostly Cloudy
12:36 PM 42.8 °F 34.5 °F 33.8 °F 70% 29.79 in 10.0 mi WSW 18.4 mph 24.2 mph N/A   Mostly Cloudy
12:56 PM 42.8 °F 34.8 °F 33.8 °F 70% 29.80 in 10.0 mi WSW 17.3 mph 28.8 mph N/A   Mostly Cloudy
1:16 PM 42.8 °F 34.8 °F 33.8 °F 70% 29.79 in 10.0 mi West 17.3 mph 26.5 mph N/A   Mostly Cloudy
1:36 PM 42.8 °F 34.3 °F 33.8 °F 70% 29.79 in 10.0 mi WSW 19.6 mph 25.3 mph N/A   Scattered Clouds
1:56 PM 42.8 °F 35.4 °F 32.0 °F 66% 29.79 in 10.0 mi WSW 15.0 mph 25.3 mph N/A   Scattered Clouds
2:16 PM 42.8 °F 34.8 °F 32.0 °F 66% 29.77 in 10.0 mi WSW 17.3 mph - N/A   Scattered Clouds
2:36 PM 42.8 °F 34.8 °F 33.8 °F 70% 29.78 in 10.0 mi WSW 17.3 mph 28.8 mph N/A   Mostly Cloudy
2:56 PM 42.8 °F 36.6 °F 32.0 °F 66% 29.81 in 10.0 mi WSW 11.5 mph - N/A   Mostly Cloudy
3:16 PM 42.8 °F 37.0 °F 33.8 °F 70% 29.80 in 10.0 mi SW 10.4 mph - N/A   Mostly Cloudy
3:36 PM 42.8 °F 36.2 °F 33.8 °F 70% 29.79 in 10.0 mi SW 12.7 mph - N/A   Mostly Cloudy
3:56 PM 42.8 °F 37.5 °F 33.8 °F 70% 29.81 in 10.0 mi SW 9.2 mph 18.4 mph N/A   Scattered Clouds
4:16 PM 41.0 °F 32.2 °F 33.8 °F 76% 29.80 in 10.0 mi SW 18.4 mph 24.2 mph N/A   Scattered Clouds
4:36 PM 41.0 °F 33.5 °F 33.8 °F 76% 29.80 in 10.0 mi SW 13.8 mph 19.6 mph N/A   Scattered Clouds
4:56 PM 41.0 °F 34.3 °F 35.6 °F 81% 29.82 in 10.0 mi SW 11.5 mph - N/A   Mostly Cloudy
5:16 PM 41.0 °F 33.5 °F 35.6 °F 81% 29.81 in 10.0 mi WSW 13.8 mph 18.4 mph N/A   Mostly Cloudy
5:36 PM 41.0 °F 32.8 °F 35.6 °F 81% 29.80 in 10.0 mi WSW 16.1 mph 21.9 mph N/A   Mostly Cloudy
5:56 PM 41.0 °F 35.8 °F 35.6 °F 81% 29.79 in 10.0 mi SW 8.1 mph - N/A   Mostly Cloudy
6:16 PM 41.0 °F 34.7 °F 35.6 °F 81% 29.81 in 10.0 mi WSW 10.4 mph 17.3 mph N/A   Mostly Cloudy
6:36 PM 41.0 °F 33.9 °F 35.6 °F 81% 29.80 in 10.0 mi SW 12.7 mph 18.4 mph N/A   Mostly Cloudy
6:56 PM 41.0 °F 31.9 °F 35.6 °F 81% 29.79 in 10.0 mi SW 19.6 mph 29.9 mph N/A   Mostly Cloudy
7:16 PM 41.0 °F 33.1 °F 35.6 °F 81% 29.80 in 10.0 mi SW 15.0 mph 21.9 mph N/A   Partly Cloudy
7:36 PM 41.0 °F 33.9 °F 35.6 °F 81% 29.80 in 10.0 mi WSW 12.7 mph 26.5 mph N/A   Partly Cloudy
7:56 PM 41.0 °F 33.1 °F 35.6 °F 81% 29.79 in 10.0 mi WSW 15.0 mph 20.7 mph N/A   Partly Cloudy
8:16 PM 41.0 °F 32.8 °F 35.6 °F 81% 29.79 in 10.0 mi SW 16.1 mph 28.8 mph N/A   Scattered Clouds
8:36 PM 42.8 °F 34.0 °F 37.4 °F 81% 29.80 in 10.0 mi WSW 20.7 mph 25.3 mph N/A   Mostly Cloudy
8:56 PM 42.8 °F 34.5 °F 35.6 °F 76% 29.79 in 10.0 mi SW 18.4 mph 27.6 mph N/A   Mostly Cloudy
9:16 PM 42.8 °F 35.1 °F 37.4 °F 81% 29.78 in 10.0 mi SW 16.1 mph - N/A   Mostly Cloudy
9:36 PM 41.0 °F 33.1 °F 37.4 °F 87% 29.78 in 10.0 mi SW 15.0 mph 19.6 mph N/A   Mostly Cloudy
9:56 PM 41.0 °F 33.1 °F 37.4 °F 87% 29.78 in 10.0 mi SW 15.0 mph - N/A   Overcast
10:16 PM 42.8 °F 34.5 °F 37.4 °F 81% 29.76 in 10.0 mi SSW 18.4 mph 27.6 mph N/A   Overcast
10:36 PM 42.8 °F 35.1 °F 37.4 °F 81% 29.76 in 10.0 mi SW 16.1 mph 27.6 mph N/A   Mostly Cloudy
10:56 PM 42.8 °F 34.5 °F 37.4 °F 81% 29.78 in 10.0 mi SW 18.4 mph 28.8 mph N/A   Overcast
11:16 PM 42.8 °F 33.5 °F 37.4 °F 81% 29.76 in 10.0 mi SW 23.0 mph 32.2 mph N/A   Overcast
11:36 PM 42.8 °F 32.7 °F 35.6 °F 76% 29.75 in 10.0 mi SSW 27.6 mph 38.0 mph N/A   Overcast
11:56 PM 42.8 °F 34.0 °F 37.4 °F 81% 29.77 in 10.0 mi SW 20.7 mph 33.4 mph N/A   Overcast